{"data":{"norad_id":60429,"intl_designator":"2024-144E","name":"STARLINK-32242","alt_names":[],"object_type":"PAYLOAD","status":"ACTIVE","operator":null,"country":"US","launch_date":"2024-08-12","launch_site_code":"AFETR","launch_vehicle":null,"mission":null,"orbit_class":"UNKNOWN","rcs_meters":null,"size_class":null,"mass_kg":null,"dimensions":null,"purposes":["comms"],"wikipedia_slug":null,"has_3d_model":false,"image_url":null,"decayed_at":null,"tle_current":{"epoch":"2026-05-25T05:11:34.763712Z","epoch_age_seconds":56261,"freshness":"FRESH","line1":"1 60429U 24144E   26145.21637458  .00001276  00000+0  55192-4 0  9991","line2":"2 60429  53.1607 221.8235 0001185  74.9784 285.1347 15.30195924101069","mean_motion":15.30195924,"eccentricity":0.0001185,"inclination_deg":53.1607,"raan_deg":221.8235,"arg_perigee_deg":74.9784,"mean_anomaly_deg":285.1347,"bstar":5.5192e-5,"rev_number":10106,"period_min":94.105596375906,"perigee_km":474.41511598524,"apogee_km":476.03936331003,"semimajor_km":6853.3642396476,"source":"CELESTRAK","updated_at":"2026-05-25T13:38:19.273150Z"}}}